Deer Park, WA
on Saturday, February 9, 2013

Saturday
Previous Day Next Day
Daily Summary
 ActualAverageRecord
Temperature
Mean Temperature °F 30°F  
Max Temperature 32°F 38°F 43°F (2006)
Min Temperature 15°F 21°F 12°F (2011)
Degree Days
Heating Degree Days 41 35  
Month to date heating degree days 305 323  
Since 1 July heating degree days 4413 4719  
Cooling Degree Days 0 0  
Month to date cooling degree days 0 0  
Year to date cooling degree days 0 0  
Moisture
Dew Point 23°F   
Average Humidity 93    
Maximum Humidity 100    
Minimum Humidity 85    
Precipitation
Precipitation 0.00 in 0.07 in 0.03 in (2007)
Month to date precipitation 0.03 0.61  
Year to date precipitation 1.53 3.24  
Wind
Wind Speed 2 mph   
Max Wind Speed 7 mph   
Max Gust Speed 8 mph   
Visibility 4 miles   
Events Fog   

Key: T is trace of precipitation, MM is missing value
Source: NWS Daily Summary
Time(PST)TemperatureDew PointHumidity Pressure Visibility Wind DirectionWind SpeedGust SpeedPrecipitationEvents Conditions
12:53 AM 21.0°F 21.0°F 100% 30.14 in 0.2 miles Calm Calm - N/A Fog Light Freezing Fog
1:53 AM 25.0°F 25.0°F 100% 30.14 in 0.5 miles Calm Calm - N/A Fog Light Freezing Fog
2:01 AM 26.6°F 24.8°F 93% 30.08 in 1.5 miles Calm Calm - N/A   Overcast
2:16 AM 26.6°F 24.8°F 93% 30.08 in 3.0 miles Calm Calm - N/A   Overcast
2:53 AM 27.0°F 25.0°F 92% 30.12 in 6.0 miles Calm Calm - N/A   Overcast
3:26 AM 26.6°F 26.6°F 100% 30.06 in 1.8 miles WNW 5.8 mph - N/A   Overcast
3:38 AM 26.6°F 26.6°F 100% 30.05 in 3.0 miles Calm Calm - N/A   Overcast
3:53 AM 28.0°F 27.0°F 96% 30.12 in 3.0 miles Calm Calm - N/A   Overcast
3:59 AM 26.6°F 26.6°F 100% 30.06 in 1.8 miles West 3.5 mph - N/A   Overcast
4:09 AM 28.4°F 26.6°F 93% 30.06 in 0.5 miles West 4.6 mph - N/A Fog Light Freezing Fog
4:53 AM 28.0°F 28.0°F 100% 30.13 in 0.5 miles Calm Calm - N/A Fog Light Freezing Fog
5:43 AM 28.4°F 26.6°F 93% 30.06 in 2.0 miles Calm Calm - N/A   Overcast
5:53 AM 28.0°F 27.0°F 96% 30.13 in 0.8 miles WSW 3.5 mph - N/A   Mist
6:24 AM 28.4°F 28.4°F 100% 30.05 in 1.2 miles WSW 3.5 mph - N/A   Overcast
6:53 AM 28.0°F 27.0°F 96% 30.13 in 1.5 miles Calm Calm - N/A   Overcast
7:27 AM 28.4°F 26.6°F 93% 30.07 in 3.0 miles SW 3.5 mph - N/A   Overcast
7:53 AM 28.0°F 27.0°F 96% 30.14 in 5.0 miles South 6.9 mph - N/A   Overcast
8:53 AM 28.0°F 28.0°F 100% 30.13 in 4.0 miles South 3.5 mph - N/A   Overcast
9:19 AM 28.4°F 28.4°F 100% 30.06 in 2.0 miles Variable 4.6 mph - N/A   Overcast
9:28 AM 28.4°F 28.4°F 100% 30.06 in 1.8 miles SSW 4.6 mph - N/A   Overcast
9:40 AM 28.4°F 28.4°F 100% 30.05 in 2.5 miles SSW 3.5 mph - N/A   Overcast
9:49 AM 28.4°F 28.4°F 100% 30.06 in 4.0 miles SW 3.5 mph - N/A   Overcast
9:53 AM 28.0°F 27.0°F 96% 30.13 in 4.0 miles SW 4.6 mph - N/A   Overcast
10:53 AM 28.0°F 28.0°F 100% 30.14 in 7.0 miles SW 3.5 mph - N/A   Overcast
11:45 AM 28.4°F 28.4°F 100% 30.05 in 9.0 miles North - - N/A   Overcast
11:53 AM 28.9°F 28.0°F 96% 30.12 in 8.0 miles North - - N/A   Overcast
12:53 PM 28.9°F 28.0°F 96% 30.12 in 9.0 miles Calm Calm - N/A   Overcast
1:53 PM 30.0°F 28.0°F 92% 30.10 in 10.0 miles SSE 4.6 mph - N/A   Overcast
2:19 PM 30.2°F 26.6°F 86% 30.03 in 10.0 miles SSE 4.6 mph - N/A   Overcast
2:53 PM 30.0°F 27.0°F 88% 30.10 in 10.0 miles SE 3.5 mph - N/A   Overcast
3:53 PM 30.9°F 27.0°F 85% 30.11 in 10.0 miles Calm Calm - N/A   Mostly Cloudy
4:51 PM 30.2°F 26.6°F 86% 30.06 in 10.0 miles Calm Calm - N/A   Scattered Clouds
4:53 PM 30.0°F 26.1°F 85% 30.14 in 10.0 miles Calm Calm - N/A   Partly Cloudy
5:53 PM 24.1°F 23.0°F 96% 30.16 in 9.0 miles Calm Calm - N/A   Clear
6:53 PM 25.0°F 23.0°F 92% 30.17 in 3.0 miles Calm Calm - N/A   Clear
6:56 PM 24.8°F 23.0°F 93% 30.10 in 1.5 miles Calm Calm - N/A   Clear
7:04 PM 21.2°F 19.4°F 93% 30.10 in 0.2 miles Calm Calm - N/A Fog Light Freezing Fog
7:18 PM 24.8°F 21.2°F 86% 30.11 in 1.8 miles Calm Calm - N/A   Partly Cloudy
7:20 PM 24.8°F 21.2°F 86% 30.11 in 3.0 miles Calm Calm - N/A   Partly Cloudy
7:35 PM 21.2°F 19.4°F 93% 30.11 in 2.5 miles Calm Calm - N/A   Clear
7:45 PM 19.4°F 17.6°F 93% 30.12 in 4.0 miles Calm Calm - N/A   Clear
7:50 PM 19.4°F 17.6°F 93% 30.12 in 1.8 miles Calm Calm - N/A   Clear
7:53 PM 19.9°F 19.0°F 96% 30.21 in 1.5 miles NNE 3.5 mph - N/A   Clear
8:03 PM 19.4°F 17.6°F 93% 30.12 in 3.0 miles Calm Calm - N/A   Clear
8:20 PM 21.2°F 19.4°F 93% 30.12 in 1.8 miles Calm Calm - N/A   Clear
8:27 PM 21.2°F 19.4°F 93% 30.13 in 3.0 miles Calm Calm - N/A   Clear
8:40 PM 21.2°F 19.4°F 93% 30.13 in 2.5 miles Calm Calm - N/A   Clear
8:53 PM 19.0°F 18.0°F 96% 30.22 in 3.0 miles NW 3.5 mph - N/A   Clear
9:53 PM 17.1°F 16.0°F 96% 30.23 in 3.0 miles Calm Calm - N/A   Clear
9:56 PM 17.6°F 15.8°F 93% 30.14 in 1.8 miles Calm Calm - N/A   Partly Cloudy
10:00 PM 17.6°F 15.8°F 93% 30.14 in 0.8 miles Calm Calm - N/A   Mist
10:20 PM 19.4°F 17.6°F 93% 30.14 in 1.2 miles North 3.5 mph - N/A   Partly Cloudy
10:25 PM 19.4°F 17.6°F 93% 30.14 in 3.0 miles Calm Calm - N/A   Partly Cloudy
10:53 PM 19.0°F 18.0°F 96% 30.24 in 1.5 miles ENE 3.5 mph - N/A   Clear
11:06 PM 17.6°F 15.8°F 93% 30.16 in 3.0 miles Calm Calm - N/A   Clear
11:25 PM 17.6°F 15.8°F 93% 30.17 in 1.8 miles Calm Calm - N/A   Clear
11:28 PM 17.6°F 15.8°F 93% 30.17 in 1.0 miles Calm Calm - N/A   Mist
11:35 PM 17.6°F 15.8°F 93% 30.17 in 0.8 miles Calm Calm - N/A   Mist
11:40 PM 17.6°F 15.8°F 93% 30.17 in 1.2 miles Calm Calm - N/A   Partly Cloudy
11:47 PM 17.6°F 15.8°F 93% 30.17 in 3.0 miles Calm Calm - N/A   Partly Cloudy
11:53 PM 16.0°F 15.1°F 96% 30.27 in 5.0 miles Calm Calm - N/A   Partly Cloudy
Moon Phase
Feb. 09 Feb. 10 Feb. 17 Feb. 25 Mar. 04
Sunrise:07:05 AM (PST) Moon Rise:06:18 AM (PST)2/9
Sunset:05:03 PM (PST) Moon Set:04:54 PM (PST)2/9

Copyright © 2014 The Weather Underground, Inc.